| time (UTC) | temp F | wind direction | speed MPH | gust MPH | rain 1hr in | rain 24hr in | rain mn in | humidity % | barometer mb |
| 20260509191528 | 73 | 197 | 9.0 | 14.0 | 0.00 | 0.24 | 0.19 | 60 | 1009.2 |
| 20260509190528 | 72 | 208 | 11.0 | 14.0 | 0.00 | 0.24 | 0.19 | 60 | 1009.3 |
| 20260509185528 | 72 | 219 | 9.0 | 16.0 | 0.00 | 0.24 | 0.19 | 61 | 1009.4 |
| 20260509184529 | 72 | 198 | 10.0 | 13.0 | 0.00 | 0.24 | 0.19 | 61 | 1009.5 |
| 20260509183528 | 71 | 226 | 7.0 | 10.0 | 0.00 | 0.24 | 0.19 | 62 | 1009.4 |
| 20260509182519 | 71 | 218 | 8.0 | 14.0 | 0.00 | 0.24 | 0.19 | 61 | 1009.5 |
| 20260509181518 | 71 | 213 | 9.0 | 12.0 | 0.00 | 0.24 | 0.19 | 62 | 1009.5 |
| 20260509180518 | 71 | 235 | 6.0 | 10.0 | 0.00 | 0.24 | 0.19 | 63 | 1009.6 |
| 20260509175519 | 71 | 214 | 7.0 | 11.0 | 0.00 | 0.24 | 0.19 | 63 | 1009.7 |
| 20260509174518 | 69 | 212 | 9.0 | 14.0 | 0.00 | 0.24 | 0.19 | 65 | 1009.7 |
| 20260509173519 | 70 | 234 | 7.0 | 10.0 | 0.00 | 0.24 | 0.19 | 65 | 1009.9 |
| 20260509172519 | 70 | 236 | 5.0 | 10.0 | 0.00 | 0.24 | 0.19 | 64 | 1009.8 |
| 20260509171519 | 70 | 220 | 7.0 | 9.0 | 0.00 | 0.24 | 0.19 | 66 | 1009.8 |
| 20260509170519 | 68 | 217 | 7.0 | 12.0 | 0.00 | 0.24 | 0.19 | 67 | 1009.8 |
| 20260509165519 | 67 | 206 | 8.0 | 13.0 | 0.00 | 0.24 | 0.19 | 69 | 1009.9 |
| 20260509164519 | 67 | 211 | 7.0 | 11.0 | 0.00 | 0.24 | 0.19 | 68 | 1009.8 |
| 20260509163519 | 67 | 226 | 8.0 | 13.0 | 0.00 | 0.24 | 0.19 | 68 | 1009.8 |
| 20260509162539 | 67 | 219 | 7.0 | 14.0 | 0.00 | 0.24 | 0.19 | 70 | 1009.9 |
| 20260509161519 | 65 | 225 | 7.0 | 12.0 | 0.00 | 0.24 | 0.19 | 73 | 1009.9 |
| 20260509160519 | 64 | 209 | 8.0 | 11.0 | 0.00 | 0.24 | 0.19 | 75 | 1010.0 |
| 20260509155518 | 65 | 217 | 9.0 | 14.0 | 0.00 | 0.24 | 0.19 | 74 | 1009.9 |
| 20260509154519 | 65 | 200 | 9.0 | 14.0 | 0.00 | 0.24 | 0.19 | 73 | 1009.7 |
| 20260509153519 | 65 | 241 | 7.0 | 12.0 | 0.00 | 0.24 | 0.19 | 74 | 1009.6 |
| 20260509152519 | 64 | 225 | 8.0 | 11.0 | 0.00 | 0.24 | 0.19 | 75 | 1009.7 |
| 20260509151519 | 64 | 244 | 5.0 | 9.0 | 0.00 | 0.24 | 0.19 | 75 | 1009.7 |
| 20260509150519 | 64 | 214 | 7.0 | 10.0 | 0.00 | 0.24 | 0.19 | 78 | 1009.6 |
| 20260509145519 | 64 | 191 | 8.0 | 11.0 | 0.00 | 0.24 | 0.19 | 78 | 1009.5 |
| 20260509144519 | 63 | 206 | 9.0 | 13.0 | 0.00 | 0.24 | 0.19 | 78 | 1009.5 |
| 20260509143519 | 64 | 207 | 8.0 | 10.0 | 0.00 | 0.24 | 0.19 | 79 | 1009.5 |
| 20260509142519 | 63 | 189 | 7.0 | 9.0 | 0.00 | 0.24 | 0.19 | 79 | 1009.4 |
| 20260509141519 | 63 | 204 | 6.0 | 9.0 | 0.00 | 0.24 | 0.19 | 81 | 1009.3 |
| 20260509140519 | 62 | 175 | 7.0 | 10.0 | 0.00 | 0.24 | 0.19 | 82 | 1009.3 |
| 20260509135519 | 62 | 197 | 6.0 | 9.0 | 0.00 | 0.24 | 0.19 | 84 | 1009.4 |
| 20260509134540 | 61 | 215 | 6.0 | 9.0 | 0.00 | 0.24 | 0.19 | 86 | 1009.3 |
| 20260509133519 | 61 | 215 | 7.0 | 9.0 | 0.00 | 0.24 | 0.19 | 85 | 1009.2 |
| 20260509132519 | 61 | 205 | 5.0 | 7.0 | 0.00 | 0.24 | 0.19 | 87 | 1009.2 |
| 20260509131520 | 60 | 194 | 6.0 | 9.0 | 0.00 | 0.24 | 0.19 | 89 | 1009.3 |
| 20260509130519 | 59 | 203 | 6.0 | 9.0 | 0.00 | 0.24 | 0.19 | 89 | 1009.3 |
| 20260509125520 | 58 | 188 | 4.0 | 5.0 | 0.00 | 0.24 | 0.19 | 92 | 1009.2 |
| 20260509124519 | 57 | 194 | 4.0 | 6.0 | 0.00 | 0.24 | 0.19 | 94 | 1009.2 |
| 20260509123539 | 57 | 207 | 3.0 | 5.0 | 0.00 | 0.24 | 0.19 | 97 | 1009.1 |
| 20260509122519 | 56 | 207 | 2.0 | 5.0 | 0.00 | 0.24 | 0.19 | 97 | 1009.0 |
| 20260509121519 | 55 | 175 | 3.0 | 4.0 | 0.01 | 0.24 | 0.19 | 98 | 1008.9 |
| 20260509120520 | 55 | 201 | 2.0 | 3.0 | 0.01 | 0.24 | 0.19 | 99 | 1008.8 |
| 20260509115520 | 54 | 192 | 3.0 | 4.0 | 0.01 | 0.24 | 0.19 | 99 | 1008.9 |
| 20260509114519 | 54 | 214 | 2.0 | 4.0 | 0.01 | 0.24 | 0.19 | 99 | 1008.9 |
| 20260509113519 | 54 | 186 | 2.0 | 4.0 | 0.01 | 0.24 | 0.19 | 99 | 1008.8 |
| 20260509112520 | 54 | 185 | 2.0 | 4.0 | 0.01 | 0.24 | 0.19 | 99 | 1008.6 |
| 20260509111520 | 54 | 196 | 4.0 | 5.0 | 0.00 | 0.23 | 0.18 | 99 | 1008.6 |
| 20260509110520 | 54 | 175 | 1.0 | 2.0 | 0.00 | 0.23 | 0.18 | 99 | 1008.5 |
| 20260509105519 | 54 | 110 | 0.0 | 2.0 | 0.00 | 0.23 | 0.18 | 99 | 1008.4 |
| 20260509104520 | 54 | 62 | 0.0 | 2.0 | 0.00 | 0.23 | 0.18 | 99 | 1008.3 |
| 20260509103520 | 54 | 155 | 2.0 | 4.0 | 0.00 | 0.23 | 0.18 | 99 | 1008.3 |
| 20260509102520 | 54 | 161 | 1.0 | 2.0 | 0.01 | 0.23 | 0.18 | 99 | 1008.4 |
| 20260509101520 | 54 | 170 | 1.0 | 2.0 | 0.01 | 0.23 | 0.18 | 99 | 1008.6 |
| 20260509100540 | 54 | 187 | 1.0 | 3.0 | 0.03 | 0.23 | 0.18 | 99 | 1008.9 |
| 20260509095519 | 54 | 181 | 2.0 | 3.0 | 0.04 | 0.23 | 0.18 | 99 | 1008.8 |
| 20260509094520 | 54 | 0.0 | 0.0 | 0.04 | 0.23 | 0.18 | 98 | 1008.9 | |
| 20260509093520 | 54 | 0.0 | 0.0 | 0.04 | 0.23 | 0.18 | 98 | 1009.2 | |
| 20260509092520 | 54 | 203 | 1.0 | 2.0 | 0.04 | 0.22 | 0.17 | 98 | 1009.3 |
| 20260509091701 | 54 | 0.0 | 1.0 | 0.05 | 0.22 | 0.17 | 98 | 1009.2 | |
| 20260509090520 | 54 | 203 | 2.0 | 3.0 | 0.05 | 0.20 | 0.15 | 98 | 1009.4 |
| 20260509085520 | 54 | 0.0 | 0.0 | 0.04 | 0.19 | 0.14 | 98 | 1009.3 | |
| 20260509084520 | 54 | 89 | 1.0 | 3.0 | 0.05 | 0.19 | 0.14 | 98 | 1009.4 |
| 20260509083540 | 54 | 0.0 | 0.0 | 0.06 | 0.19 | 0.14 | 98 | 1009.5 | |
| 20260509082600 | 54 | 152 | 0.0 | 2.0 | 0.06 | 0.18 | 0.13 | 98 | 1009.7 |
| 20260509081520 | 54 | 0.0 | 0.0 | 0.06 | 0.17 | 0.12 | 98 | 1009.7 | |
| 20260509080520 | 54 | 0.0 | 0.0 | 0.05 | 0.15 | 0.10 | 98 | 1009.8 | |
| 20260509075520 | 54 | 0.0 | 0.0 | 0.06 | 0.15 | 0.10 | 98 | 1009.8 | |
| 20260509074540 | 54 | 0.0 | 0.0 | 0.05 | 0.14 | 0.09 | 98 | 1009.7 | |
| 20260509073520 | 54 | 133 | 1.0 | 2.0 | 0.04 | 0.13 | 0.08 | 98 | 1010.0 |
| 20260509072521 | 54 | 0.0 | 1.0 | 0.03 | 0.12 | 0.07 | 98 | 1010.1 | |
| 20260509071520 | 54 | 0.0 | 0.0 | 0.02 | 0.11 | 0.06 | 97 | 1010.2 | |
| 20260509070520 | 54 | 0.0 | 0.0 | 0.02 | 0.10 | 0.05 | 97 | 1010.1 | |
| 20260509065520 | 54 | 127 | 1.0 | 2.0 | 0.02 | 0.09 | 0.04 | 97 | 1010.0 |
| 20260509064520 | 54 | 0.0 | 0.0 | 0.02 | 0.09 | 0.04 | 97 | 1010.2 | |
| 20260509063540 | 54 | 0.0 | 0.0 | 0.03 | 0.09 | 0.04 | 97 | 1010.3 | |
| 20260509062600 | 54 | 0.0 | 0.0 | 0.03 | 0.09 | 0.04 | 97 | 1010.5 | |
| 20260509061520 | 54 | 0.0 | 0.0 | 0.03 | 0.09 | 0.04 | 97 | 1010.5 | |
| 20260509060520 | 54 | 0.0 | 0.0 | 0.02 | 0.08 | 0.03 | 97 | 1010.8 | |
| 20260509055520 | 54 | 0.0 | 0.0 | 0.01 | 0.07 | 0.02 | 97 | 1010.9 | |
| 20260509054520 | 54 | 0.0 | 0.0 | 0.01 | 0.07 | 0.02 | 97 | 1010.9 | |
| 20260509053601 | 54 | 0.0 | 0.0 | 0.00 | 0.06 | 0.01 | 97 | 1010.8 | |
| 20260509052520 | 54 | 25 | 0.0 | 1.0 | 0.00 | 0.06 | 0.01 | 97 | 1010.7 |
| 20260509051520 | 54 | 343 | 1.0 | 3.0 | 0.00 | 0.06 | 0.01 | 97 | 1010.6 |
| 20260509050540 | 54 | 3 | 0.0 | 2.0 | 0.01 | 0.06 | 0.01 | 96 | 1010.5 |
| 20260509045520 | 54 | 3 | 0.0 | 2.0 | 0.01 | 0.06 | 0.01 | 96 | 1010.4 |
| 20260509044520 | 55 | 357 | 1.0 | 3.0 | 0.01 | 0.06 | 0.01 | 96 | 1010.3 |
| 20260509043540 | 55 | 353 | 3.0 | 5.0 | 0.01 | 0.06 | 0.01 | 96 | 1010.3 |
| 20260509042520 | 55 | 338 | 0.0 | 3.0 | 0.02 | 0.06 | 0.01 | 96 | 1010.5 |
| 20260509041521 | 55 | 357 | 2.0 | 3.0 | 0.02 | 0.06 | 0.01 | 96 | 1010.6 |
| 20260509040520 | 55 | 357 | 0.0 | 2.0 | 0.02 | 0.05 | 0.00 | 96 | 1010.7 |
| 20260509035520 | 55 | 358 | 1.0 | 3.0 | 0.02 | 0.05 | 0.05 | 95 | 1010.7 |
| 20260509034521 | 55 | 6 | 1.0 | 3.0 | 0.03 | 0.05 | 0.05 | 95 | 1010.9 |
| 20260509033540 | 55 | 354 | 1.0 | 2.0 | 0.03 | 0.05 | 0.05 | 95 | 1011.1 |
| 20260509032541 | 55 | 12 | 1.0 | 2.0 | 0.03 | 0.04 | 0.04 | 94 | 1011.2 |
| 20260509031520 | 55 | 0.0 | 0.0 | 0.04 | 0.04 | 0.04 | 93 | 1011.3 | |
| 20260509030520 | 55 | 0.0 | 0.0 | 0.03 | 0.03 | 0.03 | 93 | 1011.3 | |
| 20260509025521 | 55 | 0.0 | 0.0 | 0.03 | 0.03 | 0.03 | 93 | 1011.3 | |
| 20260509024541 | 55 | 0.0 | 0.0 | 0.02 | 0.02 | 0.02 | 92 | 1011.3 | |
| 20260509023520 | 55 | 0.0 | 0.0 | 0.02 | 0.02 | 0.02 | 92 | 1011.1 | |
| 20260509022521 | 56 | 21 | 0.0 | 3.0 | 0.01 | 0.01 | 0.01 | 91 | 1011.3 |
| 20260509021520 | 56 | 8 | 2.0 | 4.0 | 0.00 | 0.00 | 0.00 | 91 | 1011.3 |
| 20260509020521 | 56 | 8 | 3.0 | 7.0 | 0.00 | 0.00 | 0.00 | 90 | 1011.5 |
| 20260509015520 | 56 | 360 | 3.0 | 5.0 | 0.00 | 0.00 | 0.00 | 88 | 1011.6 |
| 20260509014521 | 56 | 351 | 2.0 | 6.0 | 0.00 | 0.00 | 0.00 | 87 | 1011.4 |
| 20260509013521 | 57 | 359 | 4.0 | 9.0 | 0.00 | 0.00 | 0.00 | 85 | 1011.1 |
| 20260509012521 | 58 | 5 | 3.0 | 6.0 | 0.00 | 0.00 | 0.00 | 83 | 1011.1 |
| 20260509011521 | 58 | 346 | 3.0 | 6.0 | 0.00 | 0.00 | 0.00 | 80 | 1011.0 |
| 20260509010541 | 59 | 332 | 2.0 | 6.0 | 0.00 | 0.00 | 0.00 | 77 | 1010.7 |
| 20260509005520 | 60 | 348 | 2.0 | 4.0 | 0.00 | 0.00 | 0.00 | 74 | 1010.3 |
| 20260509004521 | 60 | 345 | 1.0 | 5.0 | 0.00 | 0.00 | 0.00 | 71 | 1010.2 |
| 20260509003521 | 61 | 7 | 4.0 | 6.0 | 0.00 | 0.00 | 0.00 | 70 | 1010.2 |
| 20260509002521 | 61 | 348 | 1.0 | 4.0 | 0.00 | 0.00 | 0.00 | 68 | 1010.3 |
| 20260509001521 | 62 | 360 | 1.0 | 2.0 | 0.00 | 0.00 | 0.00 | 64 | 1010.2 |
| 20260509000521 | 63 | 0.0 | 0.0 | 0.00 | 0.00 | 0.00 | 65 | 1010.3 | |
| 20260508235521 | 63 | 0.0 | 0.0 | 0.00 | 0.00 | 0.00 | 62 | 1010.3 | |
| 20260508234601 | 64 | 323 | 0.0 | 1.0 | 0.00 | 0.00 | 0.00 | 59 | 1010.2 |
| 20260508233521 | 64 | 188 | 2.0 | 3.0 | 0.00 | 0.00 | 0.00 | 58 | 1010.2 |
| 20260508232521 | 64 | 0.0 | 0.0 | 0.00 | 0.00 | 0.00 | 60 | 1010.3 | |
| 20260508231521 | 65 | 226 | 3.0 | 4.0 | 0.00 | 0.00 | 0.00 | 55 | 1010.2 |
| 20260508230521 | 65 | 207 | 2.0 | 5.0 | 0.00 | 0.00 | 0.00 | 56 | 1010.2 |
| 20260508225521 | 65 | 245 | 3.0 | 7.0 | 0.00 | 0.00 | 0.00 | 55 | 1010.2 |
| 20260508224521 | 65 | 207 | 3.0 | 4.0 | 0.00 | 0.00 | 0.00 | 57 | 1010.2 |
| 20260508223521 | 64 | 265 | 1.0 | 2.0 | 0.00 | 0.00 | 0.00 | 59 | 1010.2 |
| 20260508222521 | 64 | 202 | 1.0 | 4.0 | 0.00 | 0.00 | 0.00 | 58 | 1010.1 |
| 20260508221521 | 65 | 227 | 1.0 | 4.0 | 0.00 | 0.00 | 0.00 | 58 | 1010.1 |
| 20260508220521 | 65 | 327 | 0.0 | 1.0 | 0.00 | 0.00 | 0.00 | 56 | 1010.1 |
| 20260508215521 | 66 | 273 | 2.0 | 4.0 | 0.00 | 0.00 | 0.00 | 52 | 1010.0 |
| 20260508214521 | 67 | 222 | 4.0 | 6.0 | 0.00 | 0.00 | 0.00 | 50 | 1010.0 |
| 20260508213521 | 67 | 256 | 3.0 | 5.0 | 0.00 | 0.00 | 0.00 | 49 | 1010.0 |
| 20260508212521 | 67 | 212 | 5.0 | 8.0 | 0.00 | 0.00 | 0.00 | 48 | 1009.9 |
| 20260508211521 | 67 | 218 | 4.0 | 10.0 | 0.00 | 0.00 | 0.00 | 48 | 1010.1 |
| 20260508210521 | 67 | 239 | 5.0 | 8.0 | 0.00 | 0.00 | 0.00 | 48 | 1010.3 |
| 20260508205521 | 68 | 226 | 7.0 | 9.0 | 0.00 | 0.00 | 0.00 | 47 | 1010.2 |
| 20260508204521 | 69 | 219 | 5.0 | 7.0 | 0.00 | 0.00 | 0.00 | 48 | 1010.2 |
| 20260508203521 | 69 | 221 | 5.0 | 8.0 | 0.00 | 0.00 | 0.00 | 47 | 1010.5 |
| 20260508202541 | 69 | 232 | 5.0 | 8.0 | 0.00 | 0.00 | 0.00 | 46 | 1010.6 |
| 20260508201542 | 68 | 213 | 8.0 | 14.0 | 0.00 | 0.00 | 0.00 | 45 | 1010.9 |
| 20260508200542 | 68 | 229 | 7.0 | 12.0 | 0.00 | 0.00 | 0.00 | 45 | 1011.1 |
| 20260508195522 | 68 | 208 | 9.0 | 12.0 | 0.00 | 0.00 | 0.00 | 45 | 1011.5 |
| 20260508194522 | 68 | 232 | 7.0 | 18.0 | 0.00 | 0.00 | 0.00 | 45 | 1011.5 |
| 20260508193521 | 68 | 206 | 9.0 | 14.0 | 0.00 | 0.00 | 0.00 | 47 | 1011.7 |
| 20260508192521 | 67 | 202 | 11.0 | 16.0 | 0.00 | 0.00 | 0.00 | 45 | 1011.8 |